Location: ???????
(54.9567°N, 38.2836°E)
Time: 15:54:18
(UTC+00:00)

Cosmos 1666 Rocket - Pass Details

Date: 14 April 2024
Orbit: 600 x 630 km, 82.5° (Epoch: 24 May)

Event Time Altitude Azimuth Distance (km) Brightness Sun altitude
Rises 01:28:46 0° 344° (NNW) 2,938 7.2 -8.3°
Reaches altitude 10° 01:31:05 10° 339° (NNW) 2,024 6.3 -8.0°
Maximum altitude 01:35:22 46° 267° (W) 855 3.9 -7.5°
Drops below altitude 10° 01:39:36 10° 194° (SSW) 2,000 5.8 -6.9°
Sets 01:41:52 0° 188° (S) 2,898 6.7 -6.6°
